Miscellaneous Local Product
Issued by NWS North Platte, NE

Home | Current Version | Previous Version | Text Only | Print | Product List | Glossary On
Versions: 1 2 3 4 5 6 7 8 9 10 11 12 13 14 15 16 17 18 19 20 21 22 23 24 25 26 27 28 29 30 31 32 33 34 35 36 37 38 39 40 41 42 43 44 45 46 47 48 49 50
000
AXUS43 KLBF 021010
MISLBF


WESTERN AND NORTH CENTRAL NEBRASKA HOURLY WEATHER ROUNDUP
NATIONAL WEATHER SERVICE NORTH PLATTE NE
500 AM CDT TUE SEP 02 2014

***STATIONS NOT REPORTING VARIABLES SUCH AS SKY/WEATHER OR
PRESSURE ARE PROVIDED BY THE NEBRASKA DEPARTMENT OF
ROADS...RAWS...AND APRS NETWORKS...AND ARE NOT UNDER
NATIONAL WEATHER SERVICE QUALITY CONTROL***

...OBSERVATIONS IN AND NEAR THE EASTERN PANHANDLE OF NEBRASKA...

CITY           SKY/WX    TMP DP  RH WIND       PRES   REMARKS
PINE RIDGE     CLEAR     39  38  96 MISG      30.02F
CHADRON        CLEAR     46  43  89 SW5       30.03S
ALLIANCE       CLEAR     41  40  96 W3        30.06F
SIDNEY         CLEAR     43  40  89 W6        30.10R
WHITECLAY        N/A     40  38  95 SE3         N/A
RUSHVILLE        N/A     40  39  96 W5          N/A
GORDON           N/A     47  47  99 NE71        N/A
CRESCENT LAKE    N/A     48  46  94 CALM        N/A
LISCO            N/A     45  41  87 CALM        N/A
BIG SPRINGS      N/A     49  47  94 CALM        N/A
$$

...OBSERVATIONS IN NORTH CENTRAL NEBRASKA...

CITY           SKY/WX    TMP DP  RH WIND       PRES   REMARKS
VALENTINE      CLEAR     49  47  93 SW3       30.01S
THEDFORD       CLEAR     48  47  98 W6        30.03F
AINSWORTH      CLEAR     50  48  92 W8        30.01S
O`NEILL        CLEAR     54  53  98 W7        29.98R
ORD            CLEAR     50  49  96 CALM      29.98F
BROKEN BOW     CLEAR     53  51  93 NW8       30.00F
SPRINGVIEW       N/A     50  48  93 NW3         N/A
ROSE             N/A     53  53  99 SW5         N/A
NEWPORT          N/A     51  50  97 W6          N/A
COMSTOCK         N/A     55  53  94 CALM        N/A
CHAMBERS         N/A     54  53  95 CALM        N/A
EWING            N/A     53  52  96 CALM        N/A
$$

...OBSERVATIONS IN SOUTHWEST NEBRASKA AND FAR NORTHEAST COLORADO...

CITY           SKY/WX    TMP DP  RH WIND       PRES   REMARKS
WRAY             N/A     52  52 100 CALM      30.06F
HOLYOKE        FAIR      54  50  87 W3        30.06F
IMPERIAL       CLEAR     54  50  86 CALM      30.04F
OGALLALA       CLEAR     45  44  97 CALM      30.05F
NORTH PLATTE   PTCLDY    47  45  93 CALM      30.03F FOG
MCCOOK         CLEAR     56  54  93 SW3       30.02F
LEXINGTON      CLEAR     51  50  96 SW3       30.01F
PAXTON           N/A     50  48  93 CALM        N/A
SUTHERLAND       N/A     46  44  93 W3          N/A
BRADY            N/A     50  47  90 CALM        N/A
GOTHENBURG       N/A     54  49  83 CALM        N/A
CALLAWAY         N/A     47  46  96 CALM        N/A
$$

...SOME WEATHER OBSERVATIONS FROM AROUND THE REGION...

CITY           SKY/WX    TMP DP  RH WIND       PRES   REMARKS
DENVER         CLEAR     52  43  71 W6        30.15F
LARAMIE        CLEAR     41  33  73 SE6       30.20R
CHEYENNE       CLEAR     45  40  82 SW6       30.16S
SCOTTSBLUFF    CLEAR     45  44  97 CALM      30.07F
RAPID CITY     CLEAR     47  41  80 W3        29.98F
PIERRE         CLEAR     54  51  90 SW12      29.91S
WINNER         FAIR      54  49  83 SW8       29.96S
SIOUX FALLS    CLEAR     57  54  89 CALM      29.93R
OMAHA          CLEAR     59  56  89 N6        29.95R
GRAND ISLAND   CLEAR     54  52  93 SW8       29.99F
KANSAS CITY    CLOUDY    66  66 100 CALM      29.92F FOG
WICHITA        CLOUDY    72  68  87 E7        29.90R
HAYS           PTCLDY    63  55  77 NE10      29.96S
LIBERAL        PTCLDY    66  61  82 N6        29.96S
GOODLAND       CLEAR     55  53  93 E6        30.06S
$$



USA.gov is the U.S. government's official web portal to all federal, state and local government web resources and services.